Location: Bannatyne
(13.0833°N, 59.5333°W)
Time: 07:33:21
(UTC+00:00)

deb Explorer IX - Pass Details

Date: 30 January 2020
Orbit: 549 x 1099 km, 38.8° (Epoch: 17 February)

Event Time Altitude Azimuth Distance (km) Brightness Sun altitude
Rises 06:10:20 0° 315° (NW) 3,897 - -61.0°
Reaches altitude 10° 06:13:13 10° 319° (NW) 2,923 - -60.3°
Maximum altitude 06:20:15 55° 36° (NE) 1,222 - -58.6°
Drops below altitude 10° 06:26:38 10° 113° (ESE) 2,665 - -57.1°
Exits shadow 06:28:52 - 117° (ESE) 3,428 ? -56.6°
Sets 06:29:10 0° 117° (ESE) 3,530 ? -56.5°
